Date String (YYYY-MM-DD hh:mm:ss) UTC,Instrument flags,Ambient pressure (hPa),Sample flow (lpm),Bypass flow (lpm),Sample temperature (°C),Ambient temperature (°C),ASC tube jacket temperature (°C),LED temperature (°C),Box temperature (°C),Sample RH (%),Span deviation,Mass concentration (μg/m³),Mass concentration (μg/m³),Mass concentration (μg/m³)
DateTimeUTC,F1_M11,P_M11,Q1_M11,Q2_M11,T1_M11,T2_M11,T3_M11,T4_M11,T5_M11,U1_M11,ZSPAN_M11,X2_M11,X0_M11,X1_M11
2023-02-26 15:00:00,,0814.2,5.00,0.00,22.8,21.4,00.0,31.5,24.7,15.2,0000.0,0006.02,0010.55,0005.33
2023-02-26 15:01:00,,0813.8,5.03,0.00,22.8,21.3,00.0,31.5,24.6,15.1,0000.0,0005.87,0011.09,0005.18
2023-02-26 15:02:00,,0813.6,4.99,0.00,22.8,21.3,00.0,31.5,24.6,15.1,0000.0,0005.66,0010.72,0005.01
2023-02-26 15:03:00,,0813.6,5.01,0.00,22.8,21.2,00.0,31.5,24.6,15.2,0000.0,0005.51,0010.54,0004.85
2023-02-26 15:04:00,,0813.6,5.00,0.00,22.8,21.2,00.0,31.5,24.5,15.0,0000.0,0005.33,0010.29,0004.71
2023-02-26 15:05:00,,0813.6,5.00,0.00,22.7,21.2,00.0,31.5,24.5,14.8,0000.0,0005.18,0009.46,0004.57
2023-02-26 15:06:00,,0813.6,4.99,0.00,22.7,21.1,00.0,31.5,24.5,14.8,0000.0,0004.97,0009.17,0004.41
2023-02-26 15:07:00,,0813.6,5.00,0.00,22.7,21.1,00.0,31.5,24.5,14.9,0000.0,0004.91,0009.37,0004.34
2023-02-26 15:08:00,,0813.6,4.99,0.00,22.7,21.1,00.0,31.5,24.5,15.0,0000.0,0004.89,0009.76,0004.32
2023-02-26 15:09:00,,0813.5,5.01,0.00,22.7,21.0,00.0,31.5,24.5,15.0,0000.0,0004.91,0010.48,0004.28
2023-02-26 15:10:00,,0813.5,5.00,0.00,22.7,21.0,00.0,31.5,24.5,14.8,0000.0,0004.96,0011.46,0004.27
2023-02-26 15:11:00,,0813.5,5.01,0.00,22.7,20.9,00.0,31.5,24.4,14.6,0000.0,0004.92,0011.35,0004.29
2023-02-26 15:12:00,,0813.5,4.98,0.00,22.7,20.8,00.0,31.4,24.4,14.6,0000.0,0004.94,0010.69,0004.31
2023-02-26 15:13:00,,0813.5,4.97,0.00,22.7,20.8,00.0,31.4,24.4,14.7,0000.0,0004.98,0010.77,0004.33
2023-02-26 15:14:00,,0813.5,4.98,0.00,22.6,20.8,00.0,31.4,24.4,14.7,0000.0,0004.97,0011.18,0004.34
2023-02-26 15:15:00,,0813.4,4.99,0.00,22.6,20.7,00.0,31.4,24.3,14.7,0000.0,0004.98,0011.32,0004.33
2023-02-26 15:16:00,,0813.4,5.00,0.00,22.6,20.6,00.0,31.4,24.3,15.0,0000.0,0004.97,0011.63,0004.30
2023-02-26 15:17:00,,0813.4,5.01,0.00,22.6,20.6,00.0,31.4,24.3,15.0,0000.0,0004.96,0011.85,0004.28
2023-02-26 15:18:00,,0813.4,5.00,0.00,22.6,20.6,00.0,31.3,24.3,15.2,0000.0,0004.98,0012.24,0004.26
2023-02-26 15:19:00,,0813.4,5.01,0.00,22.5,20.6,00.0,31.3,24.2,15.2,0000.0,0004.97,0011.89,0004.24
2023-02-26 15:20:00,,0813.4,5.00,0.00,22.5,20.5,00.0,31.3,24.2,15.4,0000.0,0004.97,0011.77,0004.23
2023-02-26 15:21:00,,0813.4,5.01,0.00,22.5,20.5,00.0,31.3,24.2,15.7,0000.0,0004.89,0011.43,0004.22
2023-02-26 15:22:00,,0813.4,5.00,0.00,22.4,20.5,00.0,31.3,24.1,15.5,0000.0,0004.87,0011.09,0004.21
2023-02-26 15:23:00,,0813.4,5.01,0.00,22.4,20.4,00.0,31.3,24.1,15.6,0000.0,0004.87,0011.02,0004.18
2023-02-26 15:24:00,,0813.3,5.00,0.00,22.4,20.4,00.0,31.2,24.1,15.8,0000.0,0004.84,0011.23,0004.16
2023-02-26 15:25:00,,0813.3,5.00,0.00,22.4,20.4,00.0,31.2,24.1,15.7,0000.0,0004.83,0011.48,0004.14
2023-02-26 15:26:00,,0813.3,4.99,0.00,22.4,20.5,00.0,31.2,24.1,15.4,0000.0,0004.83,0011.48,0004.15
2023-02-26 15:27:00,,0813.4,5.00,0.00,22.4,20.6,00.0,31.2,24.1,15.6,0000.0,0004.85,0011.26,0004.15
2023-02-26 15:28:00,,0813.3,4.98,0.00,22.4,20.6,00.0,31.2,24.1,15.5,0000.0,0004.89,0011.17,0004.19
2023-02-26 15:29:00,,0813.3,5.00,0.00,22.3,20.6,00.0,31.2,24.0,15.7,0000.0,0004.88,0010.37,0004.23
2023-02-26 15:30:00,,0813.2,5.00,0.00,22.3,20.5,00.0,31.1,24.0,15.7,0000.0,0004.90,0010.31,0004.27
2023-02-26 15:31:00,,0813.2,5.00,0.00,22.3,20.5,00.0,31.1,24.0,15.3,0000.0,0004.93,0010.03,0004.35
2023-02-26 15:32:00,,0813.2,5.00,0.00,22.2,20.6,00.0,31.1,24.0,14.9,0000.0,0004.99,0009.46,0004.43
2023-02-26 15:33:00,,0813.3,5.00,0.00,22.3,21.1,00.0,31.1,24.1,15.1,0000.0,0005.04,0009.38,0004.50
2023-02-26 15:34:00,,0813.2,5.01,0.00,22.4,22.6,00.0,31.1,24.4,15.1,0000.0,0005.12,0009.45,0004.57
2023-02-26 15:35:00,,0813.2,5.00,0.00,22.5,23.5,00.0,31.1,24.6,15.4,0000.0,0005.22,0009.86,0004.64
2023-02-26 15:36:00,,0813.1,5.00,0.00,22.6,23.1,00.0,31.2,24.7,15.7,0000.0,0005.32,0009.34,0004.72
2023-02-26 15:37:00,,0813.1,5.01,0.00,22.6,22.7,00.0,31.2,24.6,15.3,0000.0,0005.35,0009.12,0004.77
2023-02-26 15:38:00,,0813.1,5.02,0.00,22.6,22.3,00.0,31.3,24.5,15.3,0000.0,0005.41,0009.18,0004.84
2023-02-26 15:39:00,,0813.1,5.00,0.00,22.6,22.0,00.0,31.3,24.5,15.6,0000.0,0005.47,0009.28,0004.91
2023-02-26 15:40:00,,0813.3,5.00,0.00,22.6,21.7,00.0,31.3,24.4,15.7,0000.0,0005.50,0009.45,0004.96
2023-02-26 15:41:00,,0813.1,5.00,0.00,22.6,21.6,00.0,31.3,24.4,15.0,0000.0,0005.60,0010.10,0005.01
2023-02-26 15:42:00,,0813.2,5.00,0.00,22.6,21.5,00.0,31.3,24.5,15.0,0000.0,0005.65,0010.14,0005.06
2023-02-26 15:43:00,,0813.1,5.01,0.00,22.7,21.5,00.0,31.3,24.5,15.4,0000.0,0005.69,0010.25,0005.10
2023-02-26 15:44:00,,0813.1,5.00,0.00,22.7,21.4,00.0,31.3,24.4,15.0,0000.0,0005.73,0010.24,0005.15
2023-02-26 15:45:00,,0812.8,5.01,0.00,22.7,21.4,00.0,31.3,24.4,15.0,0000.0,0005.73,0010.29,0005.18
2023-02-26 15:46:00,,0812.9,5.01,0.00,22.6,21.3,00.0,31.3,24.4,15.1,0000.0,0005.73,0010.09,0005.21
2023-02-26 15:47:00,,0812.9,5.00,0.00,22.6,21.2,00.0,31.3,24.4,14.9,0000.0,0005.73,0009.98,0005.25
2023-02-26 15:48:00,,0812.8,5.00,0.00,22.6,21.2,00.0,31.3,24.4,14.9,0000.0,0005.77,0010.42,0005.28
2023-02-26 15:49:00,,0812.8,5.00,0.00,22.6,21.2,00.0,31.3,24.4,14.8,0000.0,0005.79,0010.89,0005.30
2023-02-26 15:50:00,,0812.8,4.99,0.00,22.6,21.2,00.0,31.3,24.4,14.8,0000.0,0005.78,0010.84,0005.31
2023-02-26 15:51:00,,0812.7,5.00,0.00,22.6,21.2,00.0,31.3,24.3,14.8,0000.0,0005.81,0010.69,0005.33
2023-02-26 15:52:00,,0812.8,5.00,0.00,22.6,21.2,00.0,31.3,24.3,14.9,0000.0,0005.83,0010.21,0005.35
2023-02-26 15:53:00,,0812.8,4.99,0.00,22.6,21.1,00.0,31.3,24.3,15.1,0000.0,0005.87,0010.36,0005.35
2023-02-26 15:54:00,,0812.8,5.00,0.00,22.6,21.1,00.0,31.3,24.3,15.0,0000.0,0005.90,0010.33,0005.35
2023-02-26 15:55:00,,0812.7,5.01,0.00,22.6,21.1,00.0,31.3,24.3,15.0,0000.0,0005.93,0010.28,0005.36
2023-02-26 15:56:00,,0812.7,4.99,0.00,22.6,21.1,00.0,31.3,24.3,14.9,0000.0,0005.96,0010.29,0005.38
2023-02-26 15:57:00,,0812.7,5.00,0.00,22.5,21.1,00.0,31.3,24.3,15.0,0000.0,0005.99,0010.15,0005.39
2023-02-26 15:58:00,,0812.6,5.01,0.00,22.5,21.0,00.0,31.3,24.3,14.8,0000.0,0006.03,0010.20,0005.41
2023-02-26 15:59:00,,0812.6,4.99,0.00,22.5,21.0,00.0,31.3,24.3,14.9,0000.0,0006.02,0010.06,0005.39
